Temp
17 18 19 22 24 24 26 25 24 24 23 25 24 25 27 27 28 27 22 22 21 22 21 21 21 21 21 21 21 20 20 20 20 20 20 19 18 18 18 18 19 19 19 19 19 18 19 18 17
17 19 21 23 24 25 27 24 23 24 24 23 24 25 25 27 25 25 23 20 21 22 21 22 21 21 21 21 21 20 21 20 20 20 20 19 18 18 18 18 19 19 19 19 19 19 19 18 17
17 19 23 23 24 26 26 22 23 22 23 24 24 24 25 23 24 22 21 19 21 22 21 22 21 20 20 20 20 20 20 20 20 20 20 19 19 19 19 19 19 19 19 19 19 18 18 17 17
19 22 21 23 24 23 23 22 22 22 23 23 23 24 22 20 21 19 18 18 20 21 22 21 20 20 20 20 20 20 20 20 20 19 19 19 19 19 19 19 19 19 19 19 18 18 18 18 18
19 21 21 22 23 22 21 21 22 22 22 23 23 23 23 20 19 18 17 18 20 21 21 21 20 20 20 20 20 20 20 20 20 20 19 19 19 19 19 19 19 19 19 19 18 18 18 18 18
20 20 21 23 22 21 21 21 21 22 23 23 23 23 23 19 19 17 18 17 18 20 20 21 20 20 20 20 20 20 20 20 20 20 19 19 19 19 19 19 19 19 19 18 18 18 18 18 18
20 20 22 21 21 21 21 19 21 22 22 23 22 23 23 21 18 17 18 18 18 18 19 20 20 20 20 20 20 19 19 19 19 19 19 19 19 19 19 19 19 19 19 18 17 18 18 18 17
19 20 19 20 22 21 18 19 19 20 22 20 21 23 24 21 17 17 18 18 18 17 18 19 20 20 20 20 20 20 20 20 19 19 19 19 19 19 19 19 19 19 19 18 17 18 18 18 17
16 20 21 20 19 19 17 18 18 17 19 20 21 21 21 19 18 18 18 18 18 18 17 17 18 19 20 20 20 20 20 20 20 19 19 19 19 19 19 18 18 18 19 18 17 18 18 17 18
18 19 19 17 17 17 16 16 17 18 19 19 20 21 20 20 19 18 17 18 18 18 18 17 17 18 18 19 19 19 20 19 20 20 20 19 21 21 20 18 18 18 19 18 18 17 17 18 19
15 18 16 15 15 14 15 16 16 17 18 20 20 21 20 18 18 18 18 17 17 17 17 17 17 16 17 17 18 20 19 19 20 21 21 20 20 20 19 18 17 18 17 18 17 17 18 18 19
15 14 14 14 14 14 15 15 15 16 18 19 19 18 18 17 17 17 17 17 17 16 17 17 17 17 16 17 18 20 19 19 20 20 20 20 20 19 19 18 18 18 18 18 19 19 19 19 18
15 14 13 14 13 13 14 14 15 16 17 18 17 16 16 16 16 16 16 16 16 16 16 17 17 17 17 17 18 19 18 19 19 19 20 19 20 20 19 18 18 18 18 18 19 19 19 18 18
13 13 13 13 13 13 13 15 13 18 17 16 16 16 17 17 17 17 17 16 16 17 16 16 17 17 16 16 17 19 19 18 18 19 19 19 19 19 19 19 19 19 18 18 18 18 19 18 18
12 14 14 14 13 14 13 15 14 17 17 16 17 18 18 17 16 16 16 16 17 17 16 16 16 17 16 16 16 18 18 18 18 18 18 18 18 18 19 19 19 19 19 18 17 18 18 18 18
13 14 16 15 13 13 13 18 18 17 16 17 18 18 17 18 18 17 16 16 16 16 16 16 16 16 16 16 16 17 17 18 18 17 17 18 18 18 17 18 19 19 18 18 17 17 17 16 17
14 16 14 15 13 13 13 16 17 17 17 17 18 18 18 17 17 16 16 15 16 16 16 16 16 16 16 16 15 16 16 17 18 17 17 17 18 18 17 17 17 19 17 17 17 17 17 17 17
16 15 14 14 15 14 14 14 16 17 17 17 18 18 18 17 17 16 15 15 15 15 15 15 15 16 16 16 16 15 15 16 17 18 17 17 17 18 17 18 18 17 17 17 16 17 16 17 17
13 13 14 15 15 13 15 15 16 17 17 17 18 17 17 16 16 14 14 14 14 14 14 15 15 15 16 16 16 14 15 16 16 16 16 17 17 17 17 17 17 16 16 16 16 16 16 15 16
12 13 15 15 14 13 15 16 17 17 17 16 15 16 16 16 16 15 15 14 13 14 14 14 14 15 15 16 16 16 16 17 17 16 16 16 16 17 16 16 16 16 16 16 16 16 15 15 14
13 13 14 13 14 16 15 17 16 16 16 16 16 16 16 16 15 15 15 15 14 14 14 15 15 14 15 15 15 15 16 16 16 16 16 16 15 16 16 16 16 16 15 15 15 15 15 15 14
13 13 13 13 13 13 15 13 16 15 16 15 14 15 15 14 14 14 14 14 15 14 14 14 14 14 14 15 15 15 15 16 17 17 16 14 15 16 16 15 15 15 15 15 15 15 15 15 15
14 13 13 13 12 11 13 11 16 14 12 10 11 13 12 13 13 12 13 14 14 14 14 13 13 14 14 15 15 15 14 15 16 16 15 16 15 15 15 15 14 14 14 14 14 15 14 14 15
13 13 14 13 11 11 15 13 15 11 10 10 10 10 11 11 11 12 11 12 14 14 14 13 14 14 14 15 15 14 14 14 15 14 15 15 14 15 15 15 14 14 14 14 14 14 14 14 14
12 12 13 13 12 15 14 12 12 11 10 9 9 10 10 9 9 10 10 10 13 14 14 14 14 14 15 15 14 14 14 14 14 14 14 14 14 14 14 14 14 14 14 14 14 13 13 13 14
14 13 13 13 15 15 14 13 13 12 10 8 9 9 9 9 9 8 8 10 10 12 13 13 12 14 14 13 12 13 13 13 13 13 14 14 14 14 14 14 14 14 14 14 13 13 13 14 14
11 12 12 11 13 13 15 12 12 11 9 9 9 9 9 8 8 8 8 8 8 9 10 11 12 13 14 13 14 13 13 14 14 14 14 14 14 15 14 14 15 14 14 13 13 13 13 13 14
11 11 12 12 13 15 15 13 11 9 9 9 9 9 9 8 8 7 7 7 7 7 7 8 8 8 9 10 11 11 11 12 13 13 13 13 13 13 13 13 14 13 13 13 13 13 13 13 14
11 11 11 11 12 15 15 14 10 10 9 10 11 11 11 9 8 8 7 7 6 6 6 6 6 6 7 7 7 9 9 8 10 10 10 11 11 11 12 12 12 13 13 13 13 13 13 13 13
13 13 14 13 14 13 14 14 12 12 11 10 11 12 11 10 10 10 9 7 6 6 6 6 5 5 6 7 6 8 8 7 8 8 8 9 9 10 10 10 10 10 10 10 10 10 10 10 10
Height
799 799 800 798 806 802 796 797 795 799 800 792 794 794 790 789 790 801 799 798 797 796 797 800 802 804 805 806 808 811 811 812 814 816 817 817 818 819 820 821 822 824 825 825 825 825 825 825 825
799 800 800 797 801 800 787 796 800 795 795 795 795 794 795 792 792 795 797 798 797 797 798 801 801 804 806 807 809 811 813 814 815 816 818 819 820 820 821 822 823 824 825 827 826 827 828 827 827
800 800 796 797 796 790 790 801 796 800 799 797 796 796 796 801 799 801 801 799 797 797 799 801 802 804 806 807 809 811 813 814 815 816 818 819 821 822 822 823 824 825 826 827 828 829 829 828 829
800 800 802 798 795 797 799 800 800 801 800 799 800 799 803 807 805 804 801 798 797 798 799 800 802 804 806 807 809 810 812 814 815 817 818 819 820 822 823 823 824 826 827 828 830 831 830 830 830
801 798 803 802 797 801 801 801 801 802 802 800 801 802 802 807 807 804 800 798 798 798 800 801 802 805 807 808 811 811 813 814 815 817 818 819 820 822 823 825 825 827 828 830 830 831 832 832 832
800 800 803 798 797 804 803 803 803 802 801 800 801 801 801 807 806 804 802 799 798 799 800 802 802 805 806 808 809 811 813 814 815 817 818 818 820 821 822 824 826 827 828 830 832 832 834 834 834
800 801 799 801 801 804 805 809 806 801 801 802 804 800 799 804 806 804 803 802 800 799 800 802 804 805 806 808 809 810 812 814 815 817 818 819 821 822 822 824 825 826 828 829 831 833 834 836 836
804 803 809 802 799 804 812 811 812 809 803 808 807 799 797 802 806 805 804 802 802 801 800 800 803 805 806 807 808 809 810 812 813 816 818 819 820 821 823 825 826 827 827 828 831 833 834 836 837
809 806 802 803 808 809 814 811 815 816 812 808 805 804 802 804 805 805 804 803 802 802 802 801 801 802 804 806 808 808 809 810 812 814 816 818 820 821 822 824 825 826 828 829 830 832 834 836 837
805 807 803 813 813 814 818 819 817 815 811 807 804 803 803 803 804 804 804 803 802 801 801 801 800 800 801 803 805 806 808 808 811 812 814 817 818 818 820 822 823 825 827 828 830 832 833 835 837
815 807 815 817 818 822 820 820 818 815 812 803 803 800 802 804 803 803 802 802 800 800 800 799 799 798 798 799 801 802 803 805 807 809 811 813 815 816 818 820 822 825 826 828 829 831 833 834 836
817 821 820 820 822 823 820 819 816 816 803 802 804 804 805 803 802 801 800 798 798 796 796 796 796 796 795 797 798 800 801 802 803 805 807 809 811 813 815 816 818 821 823 826 828 830 831 832 833
817 822 825 823 823 822 820 816 815 809 804 803 803 804 803 801 798 797 796 794 793 792 790 791 792 793 794 794 795 796 798 798 800 803 804 806 807 809 812 813 815 817 820 822 824 827 829 830 831
822 824 822 821 821 821 820 810 819 797 800 799 799 799 797 796 793 792 791 789 788 788 786 787 788 789 790 790 791 793 794 795 796 798 801 803 804 805 807 809 812 813 815 817 820 822 825 827 829
825 820 819 819 819 817 820 807 806 796 797 797 793 791 790 790 788 788 787 785 784 783 784 783 784 784 785 786 788 789 790 791 793 795 797 799 800 802 804 806 809 809 811 813 816 819 821 823 825
821 819 808 814 817 818 819 793 792 794 795 790 786 785 784 780 779 780 779 779 778 778 779 779 780 780 781 781 783 785 787 788 790 792 794 796 796 799 801 802 804 806 808 811 812 813 816 818 819
815 806 817 811 816 816 817 798 794 792 788 784 780 776 774 773 773 774 773 772 772 772 772 773 774 776 777 777 778 780 782 784 786 788 790 792 794 796 797 798 799 802 804 807 808 809 809 812 813
806 811 812 812 812 813 808 799 793 787 783 777 774 772 769 767 768 767 766 765 765 766 766 768 769 771 773 774 775 775 776 779 782 783 784 788 790 791 793 794 795 798 799 800 801 804 806 808 808
819 818 815 809 809 812 799 792 785 778 775 773 770 769 765 764 764 763 761 759 759 759 760 762 763 765 768 769 769 771 770 774 776 778 780 782 784 787 789 790 791 792 793 794 797 798 801 802 805
824 819 808 806 809 810 792 781 774 771 773 776 774 769 766 762 760 757 755 754 753 753 753 756 758 760 762 764 765 767 768 769 771 773 775 776 778 781 784 785 786 787 789 790 791 793 794 797 800
818 815 811 814 808 797 794 772 775 774 775 774 769 766 762 759 755 753 750 747 747 747 747 749 751 754 756 758 761 763 765 766 767 768 769 771 773 775 777 779 780 782 783 784 785 788 788 791 793
814 815 817 815 814 807 801 794 773 777 771 774 771 765 760 758 755 749 746 743 742 742 742 743 745 747 750 753 755 757 758 759 761 763 765 766 768 770 771 773 775 776 777 778 779 782 782 786 787
814 817 816 814 815 821 801 810 770 779 785 790 781 771 767 761 757 753 747 740 737 737 737 737 738 741 743 746 749 753 755 757 759 761 762 763 765 765 767 769 770 771 772 773 775 776 778 779 781
816 815 808 811 818 813 790 800 777 797 799 792 786 778 773 766 758 750 745 739 733 732 731 732 734 735 738 741 744 748 750 752 755 756 758 759 760 761 763 764 765 767 767 769 769 771 774 776 780
820 817 806 805 810 789 792 802 790 796 797 797 790 783 775 768 760 750 743 737 731 727 727 728 729 730 732 735 738 742 745 747 749 751 753 755 756 757 758 760 760 760 761 763 765 767 770 772 776
812 814 814 806 789 785 790 787 786 793 799 798 791 785 775 767 759 751 742 731 729 726 725 725 726 724 728 732 734 737 741 742 744 746 748 750 751 753 754 755 755 756 758 759 759 762 766 769 773
817 817 816 818 804 800 779 793 790 794 798 795 789 784 777 768 760 752 743 737 732 729 727 724 725 727 727 729 731 736 737 739 739 740 745 746 748 749 750 750 750 751 753 754 756 758 762 765 769
819 818 811 811 796 782 771 788 792 801 797 793 787 783 778 772 763 756 748 742 737 735 732 730 730 729 728 728 731 733 733 733 733 737 740 742 744 745 746 745 747 748 751 753 754 757 759 762 765
814 812 813 809 800 783 775 780 798 798 795 790 780 778 776 775 769 763 755 749 743 738 738 735 736 735 735 735 737 736 736 734 730 735 735 740 739 741 744 746 747 748 750 751 752 755 757 760 762
801 802 797 795 791 790 785 778 786 786 787 785 780 778 776 774 771 767 762 757 752 751 748 744 742 741 740 744 740 737 739 736 735 736 738 741 741 744 748 748 749 750 750 752 753 754 756 758 758
Wind_Speed
3 3 3 5 5 4 6 4 1 6 7 3 0 4 2 6 3 2 5 5 12 5 14 18 17 17 17 18 16 15 15 14 14 12 11 12 12 14 15 13 14 13 12 11 11 12 12 10 12
3 5 3 3 4 6 4 3 7 4 3 1 2 4 4 4 5 4 2 16 8 6 12 17 18 19 18 17 17 16 14 14 13 12 11 11 12 14 14 15 15 16 14 12 13 13 11 10 11
4 2 5 4 4 6 1 3 5 4 3 1 4 1 2 3 5 8 11 15 4 8 11 14 17 19 18 17 18 17 16 16 15 13 12 12 12 14 14 16 16 17 15 16 12 12 12 10 10
4 4 2 5 8 2 2 6 5 6 3 3 2 5 5 6 9 12 16 8 4 8 11 13 17 17 18 18 18 17 16 14 14 14 14 12 14 13 15 15 17 18 15 18 13 13 11 9 10
3 2 4 4 6 2 3 5 6 6 3 1 2 3 2 4 9 13 11 4 2 6 10 11 17 15 15 17 17 17 17 16 14 13 15 13 14 14 14 14 18 17 14 15 15 12 9 9 9
3 1 4 7 6 4 3 3 4 6 3 1 3 2 2 3 11 16 12 8 2 4 9 11 15 15 14 14 15 16 17 17 16 15 15 13 13 13 14 19 18 16 14 17 15 12 10 8 9
3 3 3 2 3 4 3 1 8 6 7 5 2 3 4 6 8 12 14 9 6 4 5 10 11 14 17 15 15 14 15 16 15 15 15 13 12 12 13 19 17 14 15 17 15 13 10 8 8
1 1 4 4 4 4 3 2 2 4 5 4 2 5 4 4 9 12 11 10 7 5 4 7 11 11 11 13 16 16 16 15 15 15 15 13 13 14 14 18 16 14 14 18 15 14 11 9 8
1 3 4 1 3 4 2 2 2 3 6 3 4 7 4 8 12 12 13 10 9 7 4 6 11 10 12 13 13 15 16 17 16 15 15 14 12 13 15 17 17 15 15 17 16 15 13 10 8
3 4 3 2 1 1 1 3 3 4 5 9 11 13 15 15 13 13 14 15 12 10 8 5 8 17 14 14 14 14 14 13 14 15 15 15 15 15 15 16 18 15 15 16 16 15 14 12 8
2 3 4 2 1 3 3 7 3 6 10 15 13 11 11 12 16 19 18 16 16 15 13 9 8 10 18 14 13 15 18 15 15 16 17 16 16 15 16 15 16 13 14 12 14 14 13 13 11
3 1 1 2 1 3 5 6 8 11 15 11 13 15 16 17 18 18 20 21 19 18 17 13 10 11 13 14 14 14 14 16 16 17 18 18 17 16 16 16 17 17 15 13 14 14 14 14 13
4 4 3 4 5 8 11 16 15 18 18 17 16 16 17 17 20 19 19 20 20 20 20 17 12 12 13 14 14 14 14 17 16 15 17 18 18 18 17 17 18 16 15 16 15 15 15 14 13
2 2 5 4 4 6 7 10 3 7 5 9 8 12 14 15 19 18 18 21 21 20 21 19 15 13 14 16 16 16 15 14 16 15 16 17 17 17 18 19 19 19 19 17 17 16 15 14 13
1 3 3 3 1 2 3 11 11 14 8 11 11 12 14 15 20 22 23 23 21 20 20 20 18 16 16 17 18 18 15 14 15 16 15 15 15 15 17 17 18 20 20 19 18 17 16 15 14
1 1 2 3 2 2 2 8 2 3 8 14 20 18 18 20 23 25 24 24 24 22 22 21 20 17 17 18 18 18 18 17 15 14 12 13 13 14 16 19 18 19 18 18 20 21 18 19 16
1 2 2 4 1 2 5 9 7 13 20 21 20 19 19 19 20 22 23 22 22 23 24 23 21 21 19 17 19 17 18 18 17 16 14 12 13 14 16 19 20 18 19 20 20 22 24 21 23
3 2 3 6 0 8 14 21 17 18 19 20 19 19 18 18 18 21 21 22 22 23 23 23 22 22 20 17 17 19 17 18 20 20 19 17 15 15 17 17 19 21 23 25 24 24 22 23 19
2 2 6 9 7 10 11 18 19 19 18 16 13 13 14 14 15 19 19 18 19 21 21 22 22 22 20 20 18 17 19 21 22 21 21 19 18 17 18 18 20 22 26 27 27 26 24 24 18
0 4 6 9 4 6 15 24 21 12 7 9 12 13 15 17 18 18 16 15 16 17 19 20 22 21 22 21 19 19 20 23 22 20 19 21 21 20 19 20 21 22 26 27 28 28 19 22 23
3 6 4 6 12 12 13 11 2 1 7 8 13 14 14 15 17 16 17 15 15 16 18 21 22 22 22 21 20 18 15 14 17 20 19 20 19 19 20 22 23 22 26 27 29 32 29 22 22
4 2 6 7 9 5 8 7 7 7 9 18 19 17 16 15 15 14 16 19 17 18 18 20 23 23 22 20 22 22 19 19 19 18 17 16 17 18 19 21 23 26 28 27 29 31 25 25 24
2 2 8 11 12 10 5 5 4 10 11 17 21 20 12 13 14 16 16 19 20 18 15 16 18 22 21 21 23 23 22 19 17 15 15 15 14 15 17 20 24 26 27 26 26 28 28 23 20
9 10 9 2 2 4 6 6 2 6 11 12 16 16 16 17 17 17 20 21 17 14 12 13 16 18 19 21 23 23 22 20 18 16 14 15 14 14 17 19 20 21 27 29 24 24 25 27 24
4 4 3 2 3 4 6 6 3 11 12 12 14 15 15 13 14 19 17 14 17 12 13 12 15 18 20 22 23 23 26 24 22 21 20 17 17 15 16 19 21 23 26 27 21 21 24 22 23
4 3 3 4 3 6 3 4 2 10 9 11 11 14 15 14 15 15 14 9 10 10 12 9 12 18 18 20 22 23 22 21 20 20 19 18 17 15 16 18 21 21 24 29 24 24 22 24 24
3 4 2 4 5 4 1 1 4 13 10 13 13 13 15 17 16 14 14 14 16 17 15 11 1 4 10 18 19 13 12 17 18 15 17 17 17 15 15 18 18 19 25 24 23 22 24 25 21
6 1 4 3 3 4 2 1 5 9 11 12 11 13 13 13 16 14 12 17 18 19 20 20 18 17 14 14 11 8 3 5 15 17 15 14 11 12 10 10 16 16 14 14 15 16 15 16 15
4 3 5 3 3 3 4 1 3 6 7 10 8 11 10 10 11 12 13 20 23 28 26 26 23 20 20 18 14 20 21 19 26 23 25 22 21 19 14 8 8 9 7 8 10 11 11 14 15
3 4 4 3 2 3 3 2 5 5 6 7 10 8 7 7 8 10 15 19 22 20 21 27 28 24 26 22 19 28 26 27 30 29 26 23 22 19 17 16 15 14 13 11 10 8 6 4 3
Wind_Direction
167 153 152 178 195 236 222 204 75 157 182 168 301 260 355 349 328 29 42 37 348 195 177 177 181 180 177 180 175 171 172 169 171 171 173 171 168 161 160 159 159 153 149 144 135 127 126 123 124
161 149 159 153 222 206 176 138 191 118 97 308 210 230 227 122 38 2 209 344 331 185 182 181 188 186 183 181 177 175 177 177 175 176 184 179 172 166 168 166 166 160 154 154 141 136 141 149 132
146 164 184 196 222 219 144 160 136 109 52 155 173 303 356 21 355 345 334 324 281 185 187 184 194 190 190 185 183 184 185 189 187 183 188 188 183 182 174 170 175 162 154 158 154 152 157 148 140
170 163 141 228 207 193 72 126 147 145 112 59 16 147 109 45 341 333 327 335 228 191 189 190 193 192 194 192 191 188 189 195 195 191 197 197 193 195 182 180 164 164 162 166 158 177 169 163 159
82 190 193 219 210 136 157 124 157 153 142 163 -0 121 98 43 360 358 351 1 257 194 191 194 196 197 197 201 202 199 196 197 205 199 204 211 201 198 195 185 169 171 172 170 176 180 170 158 163
133 235 196 213 169 167 189 170 208 225 200 186 226 233 136 95 19 8 6 4 261 208 195 194 202 204 204 205 207 207 209 209 212 212 212 212 204 203 210 192 182 186 187 178 188 181 174 169 163
165 194 201 206 161 179 150 287 229 251 247 233 345 242 140 182 17 7 13 13 4 204 210 208 206 209 215 214 215 215 216 219 222 222 221 220 211 208 201 192 190 198 192 188 189 187 184 185 182
86 244 185 210 203 134 103 167 323 256 223 335 273 237 200 114 351 346 352 14 19 1 226 195 214 218 216 219 222 220 221 224 221 227 229 223 214 208 204 201 201 206 199 190 192 196 194 192 196
198 217 224 241 205 107 119 184 120 301 275 254 237 260 305 317 324 329 335 344 357 6 346 258 221 206 218 220 226 225 227 225 230 227 226 225 213 211 208 201 208 211 209 200 199 201 204 206 206
192 213 202 16 354 46 300 299 324 279 235 248 253 259 270 293 302 313 317 312 314 319 329 304 259 231 214 219 221 222 224 222 225 222 223 218 219 214 207 204 211 212 213 208 207 209 213 212 215
148 226 150 158 288 333 297 272 253 268 263 252 266 280 290 286 294 297 294 287 288 291 294 292 267 243 226 220 221 222 222 216 220 218 216 215 218 217 208 201 199 202 212 210 210 211 212 217 222
165 199 178 174 156 296 281 298 260 247 251 290 280 281 282 283 285 283 282 280 280 278 274 276 275 245 234 223 227 221 219 214 215 213 215 214 213 214 210 204 197 199 204 206 212 213 217 221 225
201 173 229 240 270 274 278 267 271 268 263 271 272 272 269 269 272 272 271 273 272 267 265 260 260 255 240 227 224 219 220 220 218 218 219 219 214 213 212 212 203 201 202 206 210 217 219 225 229
128 238 268 281 264 260 271 272 326 259 278 275 267 265 266 265 267 272 269 267 264 263 263 259 250 248 240 234 227 222 218 220 217 212 218 220 221 216 211 217 211 209 207 209 211 211 220 226 233
119 266 261 214 191 242 272 265 236 260 282 289 282 281 277 270 264 262 277 266 260 263 264 260 253 245 238 235 231 223 219 212 215 213 210 214 215 221 217 222 224 221 219 211 209 216 216 223 232
209 247 249 156 284 102 238 261 220 289 291 284 293 289 279 278 271 268 272 259 256 257 257 258 251 247 238 232 225 219 216 211 210 210 209 211 209 219 221 219 225 227 230 224 214 210 221 224 223
112 245 266 289 243 250 230 286 277 293 294 292 288 286 282 280 279 273 268 258 251 254 253 253 246 241 238 236 227 220 218 216 215 216 218 221 224 227 227 229 228 227 225 224 221 219 215 220 221
152 228 262 275 318 270 277 273 281 281 285 285 292 291 287 283 285 288 279 263 254 252 253 247 243 237 234 233 229 225 220 222 223 222 224 228 236 234 235 236 238 232 225 224 219 222 223 224 226
94 296 290 281 295 290 277 285 287 286 287 291 300 301 301 295 302 296 285 265 255 250 245 240 239 233 231 227 223 221 218 223 226 230 229 230 238 242 236 238 239 232 229 227 223 214 218 219 219
73 295 297 285 281 287 301 297 301 295 290 319 312 312 309 303 300 295 285 267 250 244 238 238 239 234 229 227 225 225 225 227 228 230 234 233 234 236 235 235 236 236 233 231 224 215 209 217 214
248 268 314 297 319 286 305 288 6 52 317 327 329 321 310 310 310 301 289 268 250 238 236 238 237 232 232 230 226 223 225 225 222 225 231 233 235 235 234 238 237 240 235 230 224 225 215 218 216
300 224 279 303 323 309 357 294 330 346 341 347 337 335 330 329 326 311 294 280 260 250 241 246 243 229 227 225 224 217 214 216 222 225 227 234 235 239 240 241 238 242 237 231 224 225 215 222 208
337 294 288 289 285 307 269 243 285 358 341 336 332 319 329 340 334 324 308 288 268 253 247 244 234 223 221 218 218 218 220 226 230 227 233 235 236 235 238 235 240 243 242 236 230 224 215 211 211
304 303 296 285 273 261 233 217 132 5 333 327 332 344 341 334 335 323 311 305 271 250 245 237 227 218 216 214 213 219 215 217 224 224 230 233 230 234 234 234 236 238 242 234 221 218 211 214 216
239 313 309 263 221 273 159 216 322 356 346 330 338 340 335 329 337 333 322 301 285 255 242 234 226 222 217 210 208 214 215 216 220 220 222 225 229 229 233 238 237 246 247 231 218 217 213 216 222
255 283 306 292 275 310 190 249 73 2 3 343 344 348 345 352 353 335 335 343 3 304 258 231 228 226 201 204 205 207 213 218 217 216 219 223 223 230 247 238 239 241 239 235 216 211 223 227 242
133 215 82 260 234 255 222 124 199 359 355 342 343 351 352 356 350 353 354 21 29 36 53 60 196 240 218 216 218 206 212 221 218 216 226 227 232 238 242 241 224 236 238 234 230 227 240 225 239
225 32 220 198 275 290 192 94 318 326 325 322 342 359 359 355 352 6 12 32 40 47 47 59 60 66 70 89 100 102 107 246 216 219 218 211 204 209 193 182 187 190 196 198 198 201 201 206 222
180 216 209 262 254 294 310 97 213 285 308 309 334 356 4 1 359 7 16 33 42 46 49 47 57 61 64 83 82 98 91 78 116 122 111 113 111 107 113 136 170 174 191 206 200 199 208 222 229
232 234 238 260 160 240 292 250 210 228 255 278 306 346 6 16 21 30 38 37 41 44 53 53 54 54 68 75 61 87 89 83 87 88 88 90 88 82 87 88 85 82 89 98 94 98 105 114 108